Location: Bergheim
(50.9593°N, 6.6400°E)
Time: 11:23:44
(UTC+02:00)

ISS - Pass Details

Date: 27 May 2021
Orbit: 417 x 422 km, 51.6° (Epoch: 13 June)

Event Time Altitude Azimuth Distance (km) Brightness Sun altitude
Rises 23:49:41 0° 283° (WNW) 2,368 0.6 -14.3°
Reaches altitude 10° 23:52:11 10° 265° (W) 1,502 -0.7 -14.4°
Maximum altitude 23:54:38 19° 218° (SW) 1,070 -2.0 -14.6°
Enters shadow 23:55:02 19° 208° (SSW) 1,082 -2.0 -14.6°
